KC8RP Weather Reports


Display with metric or nautical units.
time (UTC)temp
F
wind
direction
speed
MPH
gust
MPH
rain 1hr
in
rain 24hr
in
rain mn
in
humidity
%
barometer
mb
20260509023045 57 360 2.0 5.0 0.00 0.00 0.00 79 1007.9
20260509021545 57 360 3.0 6.0 0.00 0.00 0.00 79 1007.8
20260509020043 57 360 1.0 4.0 0.00 0.00 0.00 78 1007.2
20260509014544 58 360 0.0 2.0 0.00 0.00 0.00 78 1007.1
20260509013045 58 360 0.0 2.0 0.00 0.00 0.00 77 1007.1
20260509011547 59 360 1.0 5.0 0.00 0.00 0.00 75 1007.1
20260509010044 60 360 2.0 12.0 0.00 0.00 0.00 73 1007.0
20260509004548 60 360 0.0 0.0 0.00 0.00 0.00 74 1006.6
20260509003040 61 360 0.0 0.0 0.00 0.00 0.00 72 1006.4
20260509001540 61 360 0.0 0.0 0.00 0.00 0.00 72 1006.5
20260509000049 62 360 0.0 0.0 0.00 0.00 0.00 71 1006.7
20260508234539 62 360 0.0 0.0 0.00 0.00 0.00 72 1006.5
20260508233038 63 360 0.0 0.0 0.00 0.00 0.00 67 1006.4
20260508231537 64 360 0.0 0.0 0.00 0.00 0.00 63 1006.5
20260508230036 65 360 0.0 0.0 0.00 0.00 0.00 59 1006.4
20260508224535 66 360 0.0 0.0 0.00 0.00 0.00 53 1006.3
20260508223037 67 360 0.0 0.0 0.00 0.00 0.00 50 1006.2
20260508221537 67 360 0.0 3.0 0.00 0.00 0.00 48 1006.2
20260508220038 67 360 0.0 5.0 0.00 0.00 0.00 49 1006.2
20260508214533 67 360 1.0 5.0 0.00 0.00 0.00 46 1006.1
20260508213043 68 360 2.0 6.0 0.00 0.00 0.00 44 1006.3
20260508211534 68 360 3.0 8.0 0.00 0.00 0.00 45 1006.4
20260508210032 68 360 2.0 11.0 0.00 0.00 0.00 44 1006.5
20260508204526 67 360 1.0 8.0 0.00 0.00 0.00 44 1006.9
20260508203024 68 360 5.0 11.0 0.00 0.00 0.00 43 1007.2
20260508201522 68 360 4.0 13.0 0.00 0.00 0.00 43 1007.3
20260508200029 68 360 2.0 11.0 0.00 0.00 0.00 46 1007.5
20260508194519 68 360 4.0 9.0 0.00 0.00 0.00 42 1007.6
20260508193018 68 360 8.0 18.0 0.00 0.00 0.00 41 1007.6
20260508191525 69 360 4.0 12.0 0.00 0.00 0.00 44 1007.7
20260508190016 70 174 3.0 19.0 0.00 0.00 0.00 40 1007.9
20260508184518 70 360 2.0 12.0 0.00 0.00 0.00 41 1008.3
20260508183013 70 360 2.0 12.0 0.00 0.00 0.00 44 1008.4
20260508181528 68 360 6.0 17.0 0.00 0.00 0.00 42 1008.9
20260508180007 69 360 8.0 18.0 0.00 0.00 0.00 41 1009.1
20260508174514 68 360 7.0 16.0 0.00 0.00 0.00 45 1009.3
20260508173101 66 360 3.0 16.0 0.00 0.00 0.00 47 1009.5
20260508171600 66 360 3.0 13.0 0.00 0.00 0.00 46 1009.8
20260508170058 66 360 4.0 12.0 0.00 0.00 0.00 46 1009.9
20260508164557 66 246 3.0 13.0 0.00 0.00 0.00 45 1010.4
20260508163053 67 211 8.0 21.0 0.00 0.00 0.00 45 1010.7
20260508161548 67 198 4.0 16.0 0.00 0.00 0.00 47 1010.8
20260508160044 65 360 5.0 17.0 0.00 0.00 0.00 48 1010.8
20260508154551 65 360 4.0 14.0 0.00 0.00 0.00 49 1011.0
20260508153037 64 360 5.0 13.0 0.00 0.00 0.00 53 1011.2
20260508151533 63 360 4.0 16.0 0.00 0.00 0.00 52 1011.4
20260508150030 61 360 5.0 10.0 0.00 0.00 0.00 55 1011.5
20260508144526 60 360 4.0 14.0 0.00 0.00 0.00 54 1011.7
20260508143024 59 360 4.0 15.0 0.00 0.00 0.00 56 1011.7
20260508141620 58 360 3.0 10.0 0.00 0.00 0.00 55 1011.9
20260508140018 57 360 4.0 12.0 0.00 0.00 0.00 55 1012.0
20260508134514 56 360 8.0 19.0 0.00 0.00 0.00 55 1012.0
20260508133016 55 360 3.0 14.0 0.00 0.00 0.00 57 1012.0
20260508131509 55 360 4.0 10.0 0.00 0.00 0.00 57 1012.1
20260508130008 55 360 3.0 10.0 0.00 0.00 0.00 56 1012.0
20260508124505 54 360 3.0 11.0 0.00 0.00 0.00 57 1012.0
20260508123000 53 360 5.0 12.0 0.00 0.00 0.00 58 1011.9
20260508121607 52 360 5.0 10.0 0.00 0.00 0.00 60 1011.9
20260508114555 51 360 3.0 10.0 0.00 0.00 0.00 61 1011.8
20260508113058 51 360 4.0 10.0 0.00 0.00 0.00 61 1011.8
20260508111558 50 360 2.0 6.0 0.00 0.00 0.00 61 1011.6
20260508110059 49 360 2.0 5.0 0.00 0.00 0.00 64 1011.4
20260508104549 48 360 2.0 5.0 0.00 0.00 0.00 68 1011.4
20260508103109 47 360 1.0 5.0 0.00 0.00 0.00 73 1011.5
20260508101552 46 360 1.0 6.0 0.00 0.00 0.00 74 1011.5
20260508100047 46 360 0.0 3.0 0.00 0.00 0.00 76 1011.4
20260508094603 46 360 0.0 2.0 0.00 0.00 0.00 75 1011.5
20260508093045 46 360 0.0 0.0 0.00 0.00 0.00 75 1011.6
20260508091544 46 360 0.0 2.0 0.00 0.00 0.00 73 1011.7
20260508090057 46 360 0.0 3.0 0.00 0.00 0.00 72 1011.7
20260508084543 45 360 0.0 2.0 0.00 0.00 0.00 73 1011.6
20260508083048 45 360 0.0 3.0 0.00 0.00 0.00 71 1011.4
20260508081542 46 360 0.0 4.0 0.00 0.00 0.00 71 1011.3
20260508080039 47 360 1.0 3.0 0.00 0.00 0.00 68 1011.3
20260508074539 48 360 0.0 2.0 0.00 0.00 0.00 66 1011.4
20260508073038 49 360 2.0 5.0 0.00 0.00 0.00 63 1011.4
20260508071536 49 360 2.0 10.0 0.00 0.00 0.00 62 1011.4
20260508070135 49 360 2.0 8.0 0.00 0.00 0.00 61 1011.5
20260508064541 49 360 2.0 4.0 0.00 0.00 0.00 61 1011.6
20260508063030 50 360 2.0 5.0 0.00 0.00 0.00 61 1012.0
20260508061535 50 360 2.0 5.0 0.00 0.00 0.00 59 1012.0
20260508060030 49 360 2.0 8.0 0.00 0.00 0.00 62 1012.1
20260508054531 47 360 2.0 9.0 0.00 0.00 0.00 65 1012.0
20260508053028 46 360 1.0 5.0 0.00 0.00 0.00 70 1012.1
20260508051525 47 360 0.0 5.0 0.00 0.00 0.00 68 1012.1
20260508050025 48 360 0.0 3.0 0.00 0.00 0.00 67 1012.1
20260508044517 49 360 0.0 3.0 0.00 0.00 0.00 64 1012.1
20260508043014 50 360 1.0 3.0 0.00 0.00 0.00 58 1012.0
20260508041510 51 360 1.0 2.0 0.00 0.00 0.00 55 1012.0
20260508040017 52 360 1.0 5.0 0.00 0.00 0.00 54 1011.9
20260508034508 51 360 2.0 5.0 0.00 0.00 0.00 54 1011.6
20260508033007 51 360 2.0 3.0 0.00 0.00 0.00 55 1011.9
20260508031506 51 360 2.0 4.0 0.00 0.00 0.00 55 1011.9
20260508030006 51 360 2.0 3.0 0.00 0.00 0.00 57 1011.8
20260508024507 51 360 0.0 2.0 0.00 0.00 0.00 59 1011.9